DCS642 EDAZ-EDSB

Flight info

Callsign DCS642
Flight time 0h 59m
Altitude 26000
Route BOLBO2A BOLBO L986 MAG M736 GALMA Z94 VAGAB Z94 GORKO T726 RUFGA Z93 UBENO N850 KRH KRH1L
Aircraft C750/M-SBDE3FGHRWXY/S

Departure

Time 2026-04-26 19:20
Airport Schönhagen Airfield (EDAZ)

Arrival

Time 2026-04-26 20:19
Airport Karlsruhe Baden-Baden Airport (EDSB)
Time Latitude Longitude Altitude Speed Heading
2026-04-26 19:05 52.20462 13.15276 139 ft 0 kts 189°
2026-04-26 19:15 52.20441 13.15281 139 ft 5 kts 164°
2026-04-26 19:15 52.20396 13.15301 139 ft 7 kts 161°
2026-04-26 19:15 52.20372 13.15362 139 ft 7 kts 89°
2026-04-26 19:15 52.20386 13.15458 139 ft 11 kts 75°
2026-04-26 19:16 52.20409 13.15608 135 ft 17 kts 76°
2026-04-26 19:16 52.20442 13.15826 135 ft 21 kts 76°
2026-04-26 19:16 52.20480 13.16040 138 ft 18 kts 75°
2026-04-26 19:16 52.20512 13.16265 137 ft 22 kts 77°
2026-04-26 19:17 52.20551 13.16521 140 ft 24 kts 75°
2026-04-26 19:17 52.20587 13.16751 148 ft 16 kts 76°
2026-04-26 19:17 52.20613 13.16923 151 ft 12 kts 77°
2026-04-26 19:17 52.20610 13.16970 152 ft 5 kts 113°
2026-04-26 19:18 52.20594 13.17027 154 ft 6 kts 118°
2026-04-26 19:18 52.20559 13.17079 156 ft 8 kts 202°
2026-04-26 19:18 52.20549 13.17031 154 ft 0 kts 256°
2026-04-26 19:19 52.20528 13.16897 149 ft 47 kts 256°
2026-04-26 19:19 52.20357 13.15795 210 ft 133 kts 257°
2026-04-26 19:19 52.20115 13.14249 689 ft 154 kts 253°
2026-04-26 19:20 52.19454 13.12790 946 ft 165 kts 229°
2026-04-26 19:20 52.19213 13.12282 1056 ft 168 kts 236°
2026-04-26 19:20 52.17969 13.09851 1757 ft 177 kts 210°
2026-04-26 19:20 52.16813 13.09156 2083 ft 181 kts 198°
2026-04-26 19:21 52.15629 13.08522 2215 ft 171 kts 199°
2026-04-26 19:21 52.14425 13.08215 2636 ft 185 kts 174°
2026-04-26 19:21 52.13144 13.08688 3139 ft 192 kts 166°
2026-04-26 19:21 52.11863 13.09166 3900 ft 191 kts 167°
2026-04-26 19:22 52.10559 13.09643 4692 ft 194 kts 168°
2026-04-26 19:22 52.09229 13.10139 5482 ft 197 kts 168°
2026-04-26 19:22 52.07871 13.10688 6175 ft 207 kts 162°
2026-04-26 19:22 52.06465 13.11639 6593 ft 232 kts 157°
2026-04-26 19:23 52.04896 13.12710 6944 ft 259 kts 158°
2026-04-26 19:23 52.03140 13.13881 7481 ft 284 kts 158°
2026-04-26 19:23 52.01303 13.15097 8570 ft 286 kts 160°
2026-04-26 19:23 51.99324 13.15610 9499 ft 292 kts 182°
2026-04-26 19:24 51.97284 13.15504 10501 ft 296 kts 185°
2026-04-26 19:24 51.95186 13.15335 10848 ft 318 kts 190°
2026-04-26 19:24 51.91626 13.10890 11318 ft 343 kts 250°
2026-04-26 19:25 51.91291 13.07150 12200 ft 336 kts 275°
2026-04-26 19:25 51.91386 13.05880 12460 ft 336 kts 280°
2026-04-26 19:25 51.92175 12.99678 13734 ft 341 kts 282°
2026-04-26 19:25 51.92495 12.95847 14439 ft 346 kts 277°
2026-04-26 19:26 51.92657 12.91943 15127 ft 348 kts 275°
2026-04-26 19:26 51.92874 12.88025 15808 ft 351 kts 278°
2026-04-26 19:26 51.93174 12.84084 16512 ft 353 kts 278°
2026-04-26 19:26 51.93453 12.80116 17238 ft 356 kts 277°
2026-04-26 19:27 51.93690 12.76158 17957 ft 359 kts 277°
2026-04-26 19:27 51.93937 12.72107 18687 ft 363 kts 277°
2026-04-26 19:27 51.94205 12.68029 19370 ft 366 kts 277°
2026-04-26 19:27 51.94472 12.63908 20073 ft 368 kts 277°
2026-04-26 19:28 51.94731 12.59762 20779 ft 371 kts 277°
2026-04-26 19:28 51.94990 12.55584 21479 ft 375 kts 277°
2026-04-26 19:28 51.95254 12.51359 22162 ft 378 kts 277°
2026-04-26 19:28 51.95519 12.47105 22842 ft 381 kts 277°
2026-04-26 19:29 51.95694 12.44270 23285 ft 383 kts 277°
2026-04-26 19:29 51.95958 12.39952 23931 ft 384 kts 277°
2026-04-26 19:29 51.96308 12.34207 24295 ft 391 kts 277°
2026-04-26 19:29 51.96576 12.29787 24286 ft 402 kts 277°
2026-04-26 19:30 51.96851 12.25205 24299 ft 415 kts 277°
2026-04-26 19:30 51.97133 12.20483 24302 ft 424 kts 277°
2026-04-26 19:30 51.97415 12.15699 24305 ft 428 kts 277°
2026-04-26 19:30 51.97511 12.14071 24307 ft 429 kts 277°
2026-04-26 19:31 51.97888 12.07650 24308 ft 431 kts 277°
2026-04-26 19:31 51.98168 12.02830 24305 ft 432 kts 277°
2026-04-26 19:31 51.98261 11.97960 24277 ft 434 kts 269°
2026-04-26 19:31 51.97843 11.93101 24281 ft 437 kts 260°
2026-04-26 19:32 51.96931 11.88384 24279 ft 441 kts 251°
2026-04-26 19:32 51.95536 11.83945 24282 ft 445 kts 242°
2026-04-26 19:32 51.93678 11.79906 24285 ft 450 kts 232°
2026-04-26 19:32 51.91393 11.76397 24282 ft 458 kts 223°
2026-04-26 19:33 51.88730 11.73541 24280 ft 463 kts 213°
2026-04-26 19:33 51.85770 11.71452 24287 ft 467 kts 204°
2026-04-26 19:33 51.82706 11.69701 24300 ft 467 kts 203°
2026-04-26 19:33 51.79646 11.67929 24302 ft 467 kts 204°
2026-04-26 19:34 51.76635 11.66175 24301 ft 467 kts 204°
2026-04-26 19:34 51.73570 11.64407 24300 ft 467 kts 203°
2026-04-26 19:34 51.70508 11.62654 24286 ft 467 kts 203°
2026-04-26 19:34 51.67442 11.60892 24285 ft 467 kts 203°
2026-04-26 19:35 51.64380 11.59129 24288 ft 468 kts 203°
2026-04-26 19:35 51.61316 11.57371 24289 ft 468 kts 203°
2026-04-26 19:35 51.58246 11.55617 24289 ft 468 kts 203°
2026-04-26 19:35 51.55177 11.53880 24286 ft 468 kts 202°
2026-04-26 19:36 51.52004 11.52627 24286 ft 472 kts 194°
2026-04-26 19:36 51.49851 11.52088 24288 ft 473 kts 191°
2026-04-26 19:36 51.45643 11.50488 24285 ft 466 kts 202°
2026-04-26 19:36 51.42626 11.48598 24292 ft 465 kts 206°
2026-04-26 19:37 51.39673 11.46508 24296 ft 465 kts 207°
2026-04-26 19:37 51.36745 11.44302 24299 ft 464 kts 208°
2026-04-26 19:37 51.33845 11.42038 24301 ft 464 kts 210°
2026-04-26 19:37 51.30977 11.39681 24302 ft 463 kts 211°
2026-04-26 19:38 51.28128 11.37282 24301 ft 463 kts 211°
2026-04-26 19:38 51.25283 11.34866 24292 ft 463 kts 211°
2026-04-26 19:38 51.22437 11.32442 24292 ft 464 kts 211°
2026-04-26 19:38 51.19591 11.30012 24292 ft 464 kts 211°
2026-04-26 19:39 51.16747 11.27584 24293 ft 464 kts 211°
2026-04-26 19:39 51.13905 11.25159 24292 ft 464 kts 211°
2026-04-26 19:39 51.11056 11.22731 24291 ft 464 kts 211°
2026-04-26 19:39 51.08208 11.20305 24290 ft 464 kts 211°
2026-04-26 19:40 51.05362 11.17882 24291 ft 464 kts 211°
2026-04-26 19:40 51.02554 11.15493 24287 ft 465 kts 211°
2026-04-26 19:40 50.99705 11.13069 24287 ft 465 kts 211°
2026-04-26 19:40 50.96855 11.10646 24288 ft 465 kts 211°
2026-04-26 19:41 50.94003 11.08223 24287 ft 465 kts 211°
2026-04-26 19:41 50.91154 11.05805 24287 ft 465 kts 211°
2026-04-26 19:41 50.88302 11.03385 24288 ft 465 kts 211°
2026-04-26 19:41 50.86412 11.01783 24288 ft 465 kts 211°
2026-04-26 19:42 50.82598 10.98551 24289 ft 465 kts 211°
2026-04-26 19:42 50.79751 10.96140 24288 ft 464 kts 211°
2026-04-26 19:42 50.76940 10.93762 24287 ft 464 kts 211°
2026-04-26 19:42 50.74096 10.91358 24289 ft 464 kts 211°
2026-04-26 19:43 50.71248 10.88953 24288 ft 464 kts 211°
2026-04-26 19:43 50.68401 10.86549 24287 ft 464 kts 211°
2026-04-26 19:43 50.65553 10.84145 24288 ft 464 kts 211°
2026-04-26 19:43 50.62707 10.81746 24285 ft 464 kts 211°
2026-04-26 19:44 50.59861 10.79348 24285 ft 464 kts 211°
2026-04-26 19:44 50.57014 10.76950 24286 ft 464 kts 211°
2026-04-26 19:44 50.54166 10.74554 24281 ft 464 kts 211°
2026-04-26 19:44 50.51328 10.72167 24274 ft 465 kts 211°
2026-04-26 19:45 50.48466 10.69747 24281 ft 466 kts 211°
2026-04-26 19:45 50.45621 10.67287 24277 ft 466 kts 212°
2026-04-26 19:45 50.42821 10.64841 24278 ft 466 kts 212°
2026-04-26 19:45 50.39990 10.62360 24278 ft 466 kts 212°
2026-04-26 19:46 50.37181 10.59898 24158 ft 451 kts 212°
2026-04-26 19:46 50.34531 10.57589 23760 ft 424 kts 212°
2026-04-26 19:46 50.31976 10.55369 23302 ft 419 kts 212°
2026-04-26 19:46 50.29455 10.53057 22830 ft 418 kts 216°
2026-04-26 19:47 50.27128 10.50351 22393 ft 425 kts 221°
2026-04-26 19:47 50.25597 10.48368 22281 ft 436 kts 223°
2026-04-26 19:47 50.22524 10.44143 22279 ft 443 kts 224°
2026-04-26 19:47 50.20228 10.40906 22278 ft 445 kts 225°
2026-04-26 19:48 50.17933 10.37649 22262 ft 447 kts 225°
2026-04-26 19:48 50.15634 10.34380 22266 ft 447 kts 225°
2026-04-26 19:48 50.13336 10.31109 22266 ft 448 kts 225°
2026-04-26 19:48 50.11036 10.27837 22263 ft 448 kts 225°
2026-04-26 19:49 50.08764 10.24606 22266 ft 448 kts 225°
2026-04-26 19:49 50.06462 10.21335 22264 ft 448 kts 225°
2026-04-26 19:49 50.04162 10.18067 22258 ft 448 kts 225°
2026-04-26 19:49 50.01861 10.14799 22259 ft 448 kts 225°
2026-04-26 19:50 49.99559 10.11531 22258 ft 448 kts 225°
2026-04-26 19:50 49.97255 10.08263 22254 ft 449 kts 225°
2026-04-26 19:50 49.94949 10.04991 22254 ft 450 kts 225°
2026-04-26 19:50 49.92632 10.01705 22252 ft 452 kts 225°
2026-04-26 19:51 49.90326 9.98391 22252 ft 451 kts 226°
2026-04-26 19:51 49.88060 9.95022 22249 ft 451 kts 226°
2026-04-26 19:51 49.85813 9.91633 22249 ft 451 kts 226°
2026-04-26 19:51 49.83570 9.88235 22250 ft 451 kts 227°
2026-04-26 19:52 49.81328 9.84836 22252 ft 451 kts 227°
2026-04-26 19:52 49.79084 9.81435 22253 ft 451 kts 227°
2026-04-26 19:52 49.76840 9.78038 22249 ft 453 kts 227°
2026-04-26 19:52 49.74624 9.74682 22249 ft 453 kts 227°
2026-04-26 19:53 49.72375 9.71277 22241 ft 453 kts 227°
2026-04-26 19:53 49.70125 9.67872 22241 ft 452 kts 227°
2026-04-26 19:53 49.67876 9.64472 22242 ft 453 kts 227°
2026-04-26 19:53 49.65626 9.61072 22241 ft 453 kts 227°
2026-04-26 19:54 49.63377 9.57676 22243 ft 453 kts 227°
2026-04-26 19:54 49.61129 9.54282 22243 ft 452 kts 227°
2026-04-26 19:54 49.58880 9.50890 22245 ft 453 kts 227°
2026-04-26 19:54 49.56629 9.47496 22245 ft 454 kts 226°
2026-04-26 19:55 49.54346 9.44132 22235 ft 456 kts 225°
2026-04-26 19:55 49.52003 9.41028 21963 ft 428 kts 222°
2026-04-26 19:55 49.49741 9.38226 21553 ft 411 kts 221°
2026-04-26 19:55 49.47497 9.35504 21118 ft 410 kts 221°
2026-04-26 19:56 49.45208 9.33007 20445 ft 408 kts 213°
2026-04-26 19:56 49.42761 9.30871 19769 ft 402 kts 216°
2026-04-26 19:56 49.40610 9.28219 19128 ft 391 kts 224°
2026-04-26 19:56 49.38687 9.25407 18513 ft 376 kts 227°
2026-04-26 19:57 49.36872 9.22558 17804 ft 372 kts 228°
2026-04-26 19:57 49.35089 9.19694 17134 ft 371 kts 228°
2026-04-26 19:57 49.33323 9.16839 16472 ft 367 kts 229°
2026-04-26 19:57 49.31578 9.14013 15815 ft 363 kts 229°
2026-04-26 19:58 49.29850 9.11206 15180 ft 360 kts 229°
2026-04-26 19:58 49.28142 9.08429 14556 ft 357 kts 229°
2026-04-26 19:58 49.26425 9.05708 13927 ft 354 kts 226°
2026-04-26 19:58 49.24676 9.03143 13244 ft 351 kts 225°
2026-04-26 19:59 49.22902 9.00608 12571 ft 347 kts 225°
2026-04-26 19:59 49.21148 8.98124 12239 ft 338 kts 224°
2026-04-26 19:59 49.19401 8.95653 12247 ft 343 kts 224°
2026-04-26 19:59 49.17640 8.93164 12239 ft 345 kts 224°
2026-04-26 20:00 49.15882 8.90679 12253 ft 345 kts 224°
2026-04-26 20:00 49.14118 8.88189 12248 ft 346 kts 224°
2026-04-26 20:00 49.12353 8.85697 12243 ft 346 kts 224°
2026-04-26 20:00 49.10585 8.83201 12233 ft 347 kts 224°
2026-04-26 20:01 49.08839 8.80737 12231 ft 347 kts 224°
2026-04-26 20:01 49.07068 8.78239 12231 ft 347 kts 224°
2026-04-26 20:01 49.05297 8.75742 12233 ft 347 kts 224°
2026-04-26 20:01 49.03530 8.73252 11821 ft 339 kts 224°
2026-04-26 20:02 49.01850 8.70897 11362 ft 318 kts 224°
2026-04-26 20:02 49.00258 8.68681 10905 ft 303 kts 224°
2026-04-26 20:02 48.98728 8.66564 10455 ft 295 kts 224°
2026-04-26 20:02 48.97720 8.65174 10158 ft 292 kts 224°
2026-04-26 20:03 48.95722 8.62415 9518 ft 288 kts 224°
2026-04-26 20:03 48.94269 8.60397 9054 ft 286 kts 224°
2026-04-26 20:03 48.92808 8.58364 8596 ft 284 kts 224°
2026-04-26 20:03 48.91358 8.56340 8141 ft 282 kts 224°
2026-04-26 20:04 48.89924 8.54332 7692 ft 280 kts 224°
2026-04-26 20:04 48.88501 8.52337 7263 ft 277 kts 224°
2026-04-26 20:04 48.87106 8.50377 7228 ft 275 kts 224°
2026-04-26 20:04 48.85701 8.48400 7239 ft 277 kts 224°
2026-04-26 20:05 48.84288 8.46413 7243 ft 277 kts 224°
2026-04-26 20:05 48.82872 8.44422 7245 ft 277 kts 224°
2026-04-26 20:05 48.81454 8.42426 7243 ft 278 kts 224°
2026-04-26 20:05 48.80057 8.40457 7245 ft 278 kts 224°
2026-04-26 20:06 48.78682 8.38529 7234 ft 257 kts 224°
2026-04-26 20:06 48.77405 8.36745 7228 ft 245 kts 224°
2026-04-26 20:06 48.76141 8.34978 7225 ft 248 kts 224°
2026-04-26 20:06 48.74879 8.33201 7228 ft 247 kts 224°
2026-04-26 20:07 48.73623 8.31426 7236 ft 247 kts 225°
2026-04-26 20:07 48.72360 8.29651 7236 ft 247 kts 224°
2026-04-26 20:07 48.71099 8.27879 7234 ft 248 kts 225°
2026-04-26 20:07 48.69842 8.26135 7229 ft 248 kts 224°
2026-04-26 20:08 48.68560 8.24352 6975 ft 251 kts 224°
2026-04-26 20:08 48.67287 8.22568 6710 ft 247 kts 224°
2026-04-26 20:08 48.66040 8.20798 6395 ft 245 kts 224°
2026-04-26 20:08 48.64807 8.19041 6232 ft 239 kts 224°
2026-04-26 20:09 48.63592 8.17314 6225 ft 241 kts 224°
2026-04-26 20:09 48.62364 8.15568 6244 ft 244 kts 224°
2026-04-26 20:09 48.61122 8.13808 6248 ft 245 kts 224°
2026-04-26 20:09 48.59885 8.12052 6243 ft 244 kts 224°
2026-04-26 20:10 48.58650 8.10300 6244 ft 244 kts 224°
2026-04-26 20:10 48.57418 8.08543 6245 ft 243 kts 224°
2026-04-26 20:10 48.56185 8.06780 6243 ft 245 kts 224°
2026-04-26 20:10 48.54943 8.05015 6153 ft 247 kts 224°
2026-04-26 20:11 48.53683 8.03229 5874 ft 248 kts 224°
2026-04-26 20:11 48.52556 8.01343 5552 ft 243 kts 236°
2026-04-26 20:11 48.52021 7.98974 5199 ft 235 kts 262°
2026-04-26 20:12 48.52011 7.94240 4612 ft 223 kts 294°
2026-04-26 20:12 48.52879 7.92358 4131 ft 215 kts 314°
2026-04-26 20:12 48.54162 7.91402 3796 ft 199 kts 351°
2026-04-26 20:12 48.55448 7.91058 3937 ft 188 kts 352°
2026-04-26 20:13 48.56757 7.90679 4010 ft 192 kts 352°
2026-04-26 20:13 48.58087 7.90486 3959 ft 192 kts 10°
2026-04-26 20:13 48.59338 7.90947 4000 ft 185 kts 18°
2026-04-26 20:13 48.60499 7.91776 3999 ft 183 kts 33°
2026-04-26 20:14 48.61582 7.92788 3957 ft 181 kts 34°
2026-04-26 20:14 48.62629 7.93752 3718 ft 170 kts 34°
2026-04-26 20:14 48.63618 7.94676 3494 ft 167 kts 34°
2026-04-26 20:14 48.64612 7.95607 3275 ft 169 kts 35°
2026-04-26 20:15 48.65619 7.96541 3049 ft 170 kts 34°
2026-04-26 20:15 48.66619 7.97473 2825 ft 168 kts 34°
2026-04-26 20:15 48.67594 7.98384 2597 ft 154 kts 34°
2026-04-26 20:15 48.68461 7.99193 2391 ft 146 kts 32°
2026-04-26 20:16 48.69281 7.99960 2200 ft 129 kts 32°
2026-04-26 20:16 48.70033 8.00659 2027 ft 127 kts 31°
2026-04-26 20:16 48.70783 8.01360 1864 ft 127 kts 30°
2026-04-26 20:16 48.71535 8.02064 1696 ft 127 kts 31°
2026-04-26 20:17 48.72281 8.02762 1524 ft 125 kts 30°
2026-04-26 20:17 48.73015 8.03445 1364 ft 121 kts 31°
2026-04-26 20:17 48.73733 8.04120 1195 ft 122 kts 33°
2026-04-26 20:17 48.74209 8.04562 1095 ft 121 kts 32°
2026-04-26 20:18 48.75162 8.05450 861 ft 122 kts 32°
2026-04-26 20:18 48.75892 8.06127 672 ft 124 kts 31°
2026-04-26 20:18 48.76614 8.06810 504 ft 120 kts 32°
2026-04-26 20:18 48.77304 8.07461 412 ft 110 kts 31°
2026-04-26 20:19 48.77794 8.07920 408 ft 52 kts 32°
2026-04-26 20:19 48.78047 8.08155 406 ft 40 kts 32°
2026-04-26 20:19 48.78272 8.08368 411 ft 37 kts 32°
2026-04-26 20:19 48.78367 8.08512 410 ft 12 kts 111°
2026-04-26 20:20 48.78329 8.08606 409 ft 7 kts 123°
2026-04-26 20:20 48.78325 8.08615 407 ft 0 kts 123°
2026-04-26 20:20 48.78325 8.08616 407 ft 1 kts 123°
2026-04-26 20:20 48.78305 8.08654 409 ft 9 kts 142°
2026-04-26 20:21 48.78221 8.08614 409 ft 18 kts 210°
2026-04-26 20:21 48.78081 8.08479 409 ft 29 kts 213°
2026-04-26 20:21 48.77890 8.08302 409 ft 36 kts 210°
2026-04-26 20:21 48.77717 8.08139 409 ft 24 kts 212°
2026-04-26 20:22 48.77576 8.08006 409 ft 23 kts 212°
2026-04-26 20:22 48.77461 8.07928 406 ft 14 kts 154°
2026-04-26 20:22 48.77413 8.08024 409 ft 9 kts 120°
2026-04-26 20:22 48.77374 8.08095 409 ft 8 kts 126°
2026-04-26 20:23 48.77344 8.08168 408 ft 8 kts 121°
2026-04-26 20:23 48.77299 8.08187 409 ft 7 kts 190°
2026-04-26 20:23 48.77258 8.08174 407 ft 6 kts 213°
2026-04-26 20:23 48.77240 8.08157 409 ft 0 kts 212°